Location: Dodgeville
(42.9600°N, 90.1300°W)
Time: 13:35:25
(UTC-05:00)

Uosat F - Visible Passes

Search period start: 27 April 2015 00:00
Search period end: 07 May 2015 00:00
Orbit: 750 x 762 km, 98.7° (Epoch: 26 April)

Date Brightness Start Highest point End Pass type
(mag) Time Alt. Az. Time Alt. Az. Time Alt. Az.
28 Apr 13.2 05:13:00 10° NE 05:17:17 28° E 05:21:37 10° SSE visible
29 Apr 14.0 04:35:42 10° ENE 04:37:28 12° E 04:39:31 10° ESE visible
01 May 13.7 04:54:30 10° NE 04:57:56 19° E 05:01:32 10° SE visible
03 May 13.2 05:14:02 10° NE 05:18:20 29° E 05:22:41 10° SSE visible
04 May 14.0 04:36:42 10° ENE 04:38:31 12° E 04:40:37 10° ESE visible
06 May 13.7 04:55:31 10° NE 04:58:59 19° E 05:02:36 10° SE visible
